Wind_Speed
26 20 18 22 22 20 20 18 16 15 15 15 15 15 14 14 15 15 17 16 17 17 17 21 24 22 19 19 17 15 13 11 11 14 16 17 17 18 19 22 25 25 26
22 22 20 21 22 21 20 19 18 17 17 16 16 17 15 16 17 17 17 16 18 18 15 18 23 20 17 16 14 13 11 9 10 13 14 15 15 17 18 21 22 22 24
18 20 22 21 20 20 20 19 20 19 19 18 18 18 17 18 18 17 18 16 18 17 14 17 21 19 17 14 12 10 9 8 10 13 13 14 14 16 18 20 20 21 22
19 21 22 22 23 22 21 18 21 20 20 20 19 20 19 19 18 17 17 17 17 17 15 17 18 18 14 13 11 9 8 9 11 12 12 13 14 16 17 18 18 19 20
19 22 22 22 21 22 21 23 24 23 23 21 21 22 20 19 18 16 16 17 17 16 17 17 17 17 15 13 10 7 9 10 10 10 12 14 16 15 16 18 18 18 18
20 22 22 20 21 20 23 25 26 25 22 25 24 23 22 20 18 17 18 18 18 18 19 18 18 17 15 12 12 11 11 9 11 13 14 16 15 14 14 16 16 17 17
24 23 23 20 19 19 20 23 27 28 27 24 26 25 24 22 20 20 18 18 19 19 20 20 20 18 17 15 12 9 9 12 16 16 15 14 13 12 12 13 14 15 15
27 23 21 21 20 19 20 21 25 29 31 27 28 28 26 23 21 20 19 18 19 20 21 21 20 18 16 13 10 12 15 16 14 13 12 11 11 11 11 12 13 13 13
22 28 21 18 21 20 21 22 22 27 31 30 30 30 27 25 22 20 20 19 20 20 20 17 16 15 14 15 16 15 14 13 12 11 10 9 10 10 11 12 13 14 15
23 22 28 19 18 21 21 23 22 26 30 32 32 32 30 27 24 21 19 19 18 18 18 16 17 18 17 17 15 14 12 10 9 8 7 8 8 9 10 11 13 14 14
24 21 27 23 18 17 21 22 22 27 29 32 31 34 31 29 27 23 20 18 18 18 19 18 16 16 16 15 14 12 9 7 6 5 6 6 7 9 9 10 12 13 13
28 24 25 25 25 21 20 19 22 25 29 31 30 34 33 31 29 25 21 19 17 17 17 17 15 15 15 13 11 8 5 3 3 4 5 5 7 7 8 9 10 11 11
34 32 28 28 26 28 22 20 22 25 30 32 31 33 34 32 29 26 23 20 18 17 17 17 16 13 13 10 7 5 2 2 3 4 3 4 4 5 6 8 9 9 11
40 37 33 29 28 27 25 19 23 24 27 32 31 31 35 32 31 29 25 22 20 18 17 16 15 14 11 9 7 5 4 6 6 5 3 3 5 7 8 8 8 10 12
47 43 40 37 33 28 32 24 21 23 26 32 34 33 37 35 33 31 28 25 23 20 18 17 16 15 12 11 9 9 9 9 8 7 6 7 7 8 7 7 10 12 13
50 47 45 42 40 36 30 32 25 24 26 31 35 35 37 38 36 33 31 28 26 24 22 19 18 17 15 14 13 13 12 10 9 9 8 8 9 8 7 11 12 13 13
53 50 49 45 44 42 37 35 31 26 27 31 35 36 36 37 38 36 34 32 30 28 25 23 22 20 19 18 16 15 13 12 11 11 11 11 10 8 11 11 12 12 10
57 54 51 49 47 45 43 40 36 31 30 31 32 35 36 36 36 37 37 35 33 32 29 27 25 23 22 21 19 16 15 15 14 13 13 12 9 10 11 11 9 8 9
59 55 52 50 50 47 47 45 41 37 34 33 33 33 34 35 36 35 35 36 35 34 33 30 29 27 26 23 20 18 17 17 16 15 14 12 10 12 11 7 6 6 8
59 56 53 50 49 48 48 50 48 43 42 38 35 35 35 35 35 35 34 33 33 32 32 31 30 28 26 24 22 20 19 19 18 16 13 11 12 12 9 5 4 4 6
61 57 54 53 50 50 49 51 52 49 45 44 40 37 36 36 36 34 34 34 33 32 32 29 28 27 26 24 23 23 21 20 18 15 13 13 13 11 8 6 6 5 5
62 58 57 54 53 51 49 49 50 51 50 47 46 43 39 38 37 37 37 35 33 32 31 30 29 27 26 25 25 23 21 20 18 16 15 15 14 12 10 9 8 7 6
65 63 61 57 53 51 51 51 52 54 55 54 50 49 44 41 39 38 37 37 36 36 34 34 32 31 29 27 25 23 22 21 19 17 17 16 15 14 13 12 9 8 7
67 63 63 60 59 56 55 53 52 49 50 49 48 47 47 47 43 39 37 37 37 36 34 34 33 31 29 27 25 24 23 22 22 20 20 18 17 17 16 13 10 8 7
68 67 62 60 61 57 54 55 54 53 52 52 52 50 47 47 47 47 44 41 40 39 38 35 33 31 29 27 27 25 25 25 24 23 22 20 20 20 18 16 13 10 9
68 69 66 63 59 59 56 56 55 54 54 52 52 52 48 45 44 45 46 46 46 44 42 41 39 36 34 33 30 28 28 28 28 26 24 23 24 23 20 19 15 11 11
Wind_Direction
211 210 204 206 206 201 207 209 210 208 204 201 190 181 179 170 165 157 152 150 142 134 137 153 154 146 139 134 127 123 111 95 78 68 66 66 63 65 66 69 66 63 62
201 200 201 202 205 201 201 207 209 206 201 201 191 186 182 173 169 163 151 150 144 137 141 151 159 152 145 136 131 122 110 95 77 72 72 70 65 69 71 70 68 66 61
210 194 197 201 201 198 199 204 206 207 202 200 191 190 185 177 173 171 157 152 148 143 148 153 164 162 154 144 137 126 111 92 83 82 76 72 70 72 71 70 69 65 62
200 194 192 200 202 197 197 203 207 209 205 197 191 193 187 179 175 176 169 165 158 151 158 162 163 166 156 154 147 135 112 106 99 90 85 82 80 72 70 68 64 61 59
200 204 197 202 200 199 196 209 211 210 210 212 196 194 189 181 177 181 179 178 173 170 168 165 160 158 161 158 148 129 122 113 101 92 93 90 84 76 69 64 58 55 52
206 204 198 203 208 206 206 212 214 214 218 202 195 193 189 183 181 178 176 173 171 171 167 163 165 165 164 149 138 136 123 110 95 93 93 87 81 72 61 56 49 48 46
200 199 197 202 206 203 209 211 215 214 205 204 196 193 190 184 183 177 171 168 168 171 165 163 160 158 148 143 138 134 126 114 108 100 91 84 75 65 55 47 46 40 38
198 195 191 203 205 206 207 210 214 213 208 210 199 193 190 186 184 177 172 167 169 169 163 160 158 152 149 140 138 127 118 110 105 99 89 79 68 58 46 43 40 34 29
196 201 196 196 205 206 206 206 214 216 209 209 200 193 190 187 186 178 174 168 172 169 162 162 160 155 149 135 131 125 122 117 108 97 83 67 55 45 38 31 32 26 21
200 199 209 202 205 206 208 205 212 214 209 207 200 194 190 189 188 182 178 171 168 170 166 164 151 141 140 140 139 134 127 118 103 85 67 53 48 43 39 27 25 23 16
201 207 205 214 211 211 210 204 210 212 206 204 201 196 191 192 192 187 185 178 174 167 158 162 154 153 150 149 146 141 130 107 82 59 40 36 45 42 31 20 10 14 13
208 199 209 219 215 219 209 213 210 210 207 203 202 200 195 194 195 192 190 183 180 180 172 168 167 167 159 158 155 147 132 93 34 10 23 34 39 27 17 10 4 5 10
210 204 204 212 218 220 205 213 213 208 206 202 202 202 198 197 197 199 195 191 187 185 183 177 171 178 174 175 177 179 190 286 332 339 2 30 15 358 353 352 352 358 358
215 210 209 211 217 218 209 214 214 207 202 200 200 201 200 201 200 203 203 200 197 197 193 185 183 194 198 201 215 238 260 289 306 297 298 316 328 327 335 340 347 345 344
216 220 221 216 215 217 213 217 216 209 198 198 199 199 201 204 204 207 207 208 208 208 207 200 200 213 219 230 241 256 270 280 282 279 290 306 315 319 328 331 327 327 329
218 221 223 221 217 215 213 217 214 211 202 197 201 200 202 205 208 209 211 212 213 215 216 215 212 222 230 241 248 259 264 263 266 272 279 290 296 302 309 314 321 325 328
222 222 222 221 221 218 215 217 217 211 209 202 201 203 205 207 211 212 213 215 218 220 221 222 224 228 237 244 253 257 255 259 266 273 277 283 289 291 305 314 322 326 340
219 221 221 218 220 219 219 214 218 216 211 211 205 206 209 210 213 214 216 218 221 224 226 227 230 234 239 246 248 247 253 262 267 269 270 278 277 292 304 310 329 340 349
216 217 219 217 218 217 217 217 215 217 216 215 210 208 210 212 215 217 217 220 223 226 228 229 233 234 240 243 242 246 255 263 263 263 267 267 273 288 296 307 320 343 355
214 215 215 215 216 216 214 217 216 213 214 219 217 214 213 212 214 218 220 222 224 227 231 232 235 237 238 239 244 251 259 260 258 259 256 257 273 282 283 284 295 319 346
213 213 214 214 212 217 215 215 218 217 216 214 218 221 219 217 217 216 220 223 225 227 230 231 233 235 237 240 248 256 258 256 254 249 248 262 272 271 258 256 266 292 332
210 212 212 214 212 214 215 216 218 217 216 215 214 220 221 223 221 221 221 222 224 227 231 232 234 237 241 247 251 253 250 246 245 246 258 264 265 256 245 246 263 287 315
211 210 210 212 213 213 213 216 217 218 216 216 217 216 223 225 224 226 226 227 228 229 231 234 238 241 244 245 245 243 244 243 241 249 257 262 258 244 236 239 251 276 305
209 212 210 210 213 213 213 214 219 219 221 223 223 221 222 226 228 228 232 232 231 232 233 236 237 239 240 241 243 243 241 242 244 256 258 255 246 237 237 245 255 276 304
209 211 211 213 213 212 214 214 217 219 218 218 221 224 224 224 227 229 231 234 234 235 238 238 240 238 236 236 237 237 240 242 247 258 257 249 240 232 233 240 250 271 299
207 211 212 212 214 213 212 215 217 218 222 221 221 222 224 226 228 228 232 233 235 236 237 239 239 238 236 238 237 241 243 247 251 257 253 245 238 232 233 240 246 258 282
Height
5842 5844 5845 5848 5851 5852 5856 5858 5862 5863 5865 5867 5869 5871 5873 5875 5876 5877 5878 5879 5880 5881 5882 5884 5885 5887 5888 5889 5890 5891 5891 5892 5892 5891 5891 5890 5890 5888 5887 5885 5883 5881 5879
5839 5841 5843 5846 5849 5851 5853 5857 5861 5863 5864 5866 5869 5871 5873 5875 5877 5878 5879 5880 5881 5883 5884 5885 5887 5889 5890 5891 5892 5893 5893 5893 5893 5893 5893 5892 5892 5890 5889 5887 5885 5884 5882
5837 5838 5841 5844 5847 5849 5852 5855 5859 5862 5864 5866 5868 5871 5873 5875 5877 5879 5880 5881 5883 5884 5886 5887 5888 5890 5891 5893 5894 5894 5895 5895 5894 5894 5895 5894 5894 5893 5891 5889 5888 5886 5885
5836 5837 5839 5842 5845 5847 5850 5854 5858 5861 5863 5866 5868 5871 5873 5875 5878 5879 5881 5882 5884 5885 5886 5888 5890 5891 5893 5894 5895 5895 5896 5896 5896 5896 5896 5896 5896 5894 5893 5892 5890 5889 5887
5833 5836 5838 5841 5842 5846 5848 5852 5856 5859 5862 5865 5867 5870 5873 5875 5877 5879 5881 5883 5884 5886 5887 5889 5890 5892 5893 5895 5896 5897 5897 5897 5897 5897 5898 5898 5897 5896 5895 5894 5893 5892 5890
5830 5833 5836 5838 5841 5844 5847 5850 5854 5857 5860 5863 5866 5870 5872 5875 5877 5879 5881 5883 5885 5886 5888 5889 5890 5892 5894 5896 5897 5898 5898 5899 5899 5900 5900 5899 5899 5898 5897 5896 5894 5893 5892
5828 5830 5833 5836 5839 5842 5844 5848 5851 5855 5858 5861 5865 5868 5871 5875 5877 5879 5881 5883 5885 5887 5888 5890 5891 5893 5895 5897 5898 5899 5899 5900 5900 5901 5901 5901 5900 5900 5898 5897 5896 5895 5893
5824 5826 5830 5834 5837 5840 5842 5846 5849 5852 5856 5860 5863 5867 5871 5874 5877 5879 5881 5883 5885 5887 5889 5890 5892 5894 5896 5898 5899 5900 5900 5901 5901 5902 5902 5902 5902 5901 5899 5898 5897 5896 5894
5820 5824 5827 5831 5834 5837 5840 5843 5847 5850 5853 5858 5862 5865 5869 5873 5876 5879 5881 5884 5886 5888 5891 5891 5894 5895 5897 5899 5900 5901 5902 5902 5902 5903 5903 5903 5902 5901 5900 5899 5898 5897 5895
5816 5820 5825 5828 5831 5834 5838 5841 5844 5847 5851 5855 5860 5863 5868 5872 5875 5878 5881 5884 5886 5889 5891 5892 5894 5896 5898 5900 5901 5902 5902 5903 5903 5904 5904 5903 5903 5902 5902 5900 5899 5898 5896
5813 5816 5821 5824 5828 5831 5835 5837 5841 5844 5848 5852 5857 5862 5866 5870 5874 5877 5881 5884 5887 5889 5892 5893 5895 5897 5899 5900 5902 5903 5903 5904 5904 5904 5904 5904 5903 5903 5902 5901 5899 5899 5897
5809 5814 5819 5822 5825 5829 5832 5835 5838 5842 5846 5850 5855 5860 5864 5868 5873 5876 5880 5884 5887 5889 5892 5894 5895 5897 5899 5900 5902 5903 5904 5904 5904 5904 5904 5904 5903 5903 5902 5901 5899 5898 5896
5802 5808 5814 5818 5822 5826 5829 5832 5835 5839 5843 5847 5852 5857 5862 5867 5872 5875 5879 5883 5886 5888 5891 5894 5896 5896 5899 5900 5902 5903 5904 5904 5905 5904 5904 5904 5903 5903 5902 5901 5899 5898 5896
5796 5803 5809 5813 5818 5821 5825 5829 5832 5836 5840 5844 5849 5855 5860 5865 5869 5873 5877 5881 5884 5887 5890 5893 5895 5895 5897 5900 5902 5902 5903 5903 5904 5903 5903 5903 5903 5902 5901 5900 5899 5897 5896
5787 5794 5802 5807 5813 5818 5821 5825 5829 5834 5836 5840 5845 5851 5856 5861 5865 5869 5874 5879 5882 5885 5888 5891 5893 5894 5897 5898 5900 5901 5902 5902 5902 5903 5903 5902 5902 5901 5901 5899 5898 5897 5895
5780 5787 5794 5801 5807 5812 5816 5820 5825 5830 5833 5836 5841 5846 5852 5857 5861 5866 5871 5875 5879 5882 5885 5889 5891 5893 5895 5896 5898 5899 5900 5900 5901 5901 5901 5901 5901 5900 5899 5898 5897 5896 5894
5775 5782 5787 5794 5800 5806 5811 5815 5820 5826 5830 5833 5837 5843 5848 5852 5857 5863 5867 5871 5875 5879 5883 5886 5888 5891 5893 5895 5896 5897 5898 5899 5899 5899 5899 5899 5899 5898 5898 5897 5896 5895 5894
5764 5772 5778 5784 5790 5799 5805 5810 5815 5821 5825 5829 5833 5839 5843 5849 5853 5858 5863 5867 5871 5875 5878 5883 5885 5888 5890 5891 5893 5894 5895 5896 5897 5897 5897 5897 5897 5897 5897 5896 5895 5894 5893
5754 5762 5769 5776 5783 5790 5798 5803 5809 5815 5820 5824 5830 5834 5839 5844 5849 5853 5858 5862 5867 5870 5873 5878 5881 5884 5886 5887 5889 5891 5892 5893 5894 5894 5895 5895 5895 5896 5896 5895 5894 5893 5892
5744 5753 5760 5767 5774 5781 5789 5794 5800 5808 5814 5818 5824 5829 5834 5839 5843 5848 5853 5858 5862 5866 5869 5873 5876 5879 5882 5884 5886 5888 5889 5890 5891 5891 5892 5893 5893 5893 5894 5894 5893 5892 5891
5733 5742 5751 5757 5765 5771 5779 5786 5793 5802 5808 5812 5819 5824 5829 5834 5838 5844 5848 5852 5857 5860 5863 5868 5871 5874 5877 5880 5882 5883 5885 5886 5887 5888 5889 5890 5890 5891 5892 5892 5891 5891 5890
5721 5732 5740 5748 5756 5764 5773 5781 5786 5793 5800 5806 5812 5817 5823 5829 5834 5838 5842 5846 5851 5855 5859 5863 5866 5869 5873 5875 5877 5879 5881 5883 5883 5884 5885 5886 5887 5888 5889 5889 5889 5889 5888
5710 5717 5728 5738 5747 5755 5764 5771 5776 5783 5790 5797 5803 5811 5817 5822 5828 5832 5837 5841 5845 5849 5853 5857 5861 5864 5867 5870 5872 5875 5877 5878 5880 5881 5882 5882 5884 5885 5886 5886 5887 5887 5887
5699 5709 5719 5727 5735 5745 5754 5762 5770 5779 5787 5794 5799 5805 5811 5816 5822 5827 5830 5835 5839 5843 5847 5851 5855 5858 5861 5865 5867 5870 5872 5874 5875 5877 5877 5878 5880 5881 5883 5883 5883 5884 5884
5688 5698 5709 5719 5724 5736 5746 5754 5761 5769 5776 5782 5790 5796 5802 5808 5813 5819 5824 5828 5832 5837 5841 5845 5849 5852 5855 5858 5861 5864 5866 5868 5870 5872 5873 5874 5876 5877 5879 5880 5880 5880 5881
5677 5689 5701 5712 5718 5726 5737 5743 5751 5760 5767 5775 5782 5788 5794 5800 5806 5812 5816 5821 5825 5829 5834 5838 5842 5846 5849 5852 5855 5858 5860 5863 5865 5867 5868 5870 5872 5873 5875 5876 5877 5877 5877